星链-4557 (STARLINK-4557 )

导读 | 豆包AI

STARLINK-4557是美国太空探索技术公司(SpaceX)星链互联网星座中的一颗卫星,于2022年8月10日发射升空,属于星链项目的组网卫星之一,旨在为全球提供高速低延迟卫星互联网服务,目前该卫星已正常在轨运行,是Starlink近地轨道星座的组成部分。

基本信息
目录编号:
53432
目录名称:
STARLINK-4557
国际标识:
2022-097AW
轨道中心:
EARTH
卫星名称:
星链-4557
卫星全名:
星链-4557 (STARLINK-4557 )
卫星状态:
在轨 (已飞行1313 天)
发射日期:
2022-08-10 UTC
国别 :
美国 (US)
星等 :
--
轨道信息
数据来源 国际轨道数据
星历时间: 2026-03-14T18:27:19+0800
21小时前
查看轨道信息
半长轴: 6917.869km
偏心率: 0.0001359
轨道倾角: 53.217°
近地点辐角 91.158°
升交点赤经 82.575°
平近点角 268.957°
近地点: 538.791km
远地点: 540.673km
周期: 95.437分钟
每日圈数: 15.088439
详细信息
固有亮度:
5
最大亮度:
2.5
卫星平台:
Starlink v1.5
覆盖范围:
全球
运营商:
太空探索技术公司
运营商所在国:
美国
制造商(研发单位):
太空探索技术公司
制造商所在国:
美国
使用方式:
暂无
卫星简介
星链(Starlink)计划是由太空探索技术公司(SpaceX)提出的一个巨型低轨卫星互联网星座项目,计划在2019年至2024年间在太空搭建由约1.2万颗卫星组成的“星链”网络,其中1584颗将部署在地球上空550千米处的近地轨道,并从2020年开始工作。该卫星仍在工作。
2D轨道图
3D轨道图
轨道高度分析图
轨道倾角分析图
轨道综合分析图
查看轨道综合分析图